Year,Month,Day,Hour,Minute,Value (Times are PST for temperature in C)
2006,11,29,00,00,-7.90
2006,11,29,00,01,-7.90
2006,11,29,00,02,-7.80
2006,11,29,00,03,-7.70
2006,11,29,00,04,-7.60
2006,11,29,00,05,-7.50
2006,11,29,00,06,-7.30
2006,11,29,00,07,-7.30
2006,11,29,00,08,-7.30
2006,11,29,00,09,-7.30
2006,11,29,00,10,-7.30
2006,11,29,00,11,-7.30
2006,11,29,00,12,-7.30
2006,11,29,00,13,-7.30
2006,11,29,00,14,-7.30
2006,11,29,00,15,-7.30
2006,11,29,00,16,-7.30
2006,11,29,00,17,-7.30
2006,11,29,00,18,-7.40
2006,11,29,00,19,-7.40
2006,11,29,00,20,-7.40
2006,11,29,00,21,-7.40
2006,11,29,00,22,-7.40
2006,11,29,00,23,-7.40
2006,11,29,00,24,-7.30
2006,11,29,00,25,-7.30
2006,11,29,00,26,-7.30
2006,11,29,00,27,-7.30
2006,11,29,00,28,-7.30
2006,11,29,00,29,-7.30
2006,11,29,00,30,-7.30
2006,11,29,00,31,-7.30
2006,11,29,00,32,-7.30
2006,11,29,00,33,-7.30
2006,11,29,00,34,-7.30
2006,11,29,00,35,-7.30
2006,11,29,00,36,-7.40
2006,11,29,00,37,-7.40
2006,11,29,00,38,-7.50
2006,11,29,00,39,-7.60
2006,11,29,00,40,-7.60
2006,11,29,00,41,-7.60
2006,11,29,00,42,-7.70
2006,11,29,00,43,-7.70
2006,11,29,00,44,-7.80
2006,11,29,00,45,-7.80
2006,11,29,00,46,-7.80
2006,11,29,00,47,-7.80
2006,11,29,00,48,-7.80
2006,11,29,00,49,-7.90
2006,11,29,00,50,-7.90
2006,11,29,00,51,-7.90
2006,11,29,00,52,-7.90
2006,11,29,00,53,-7.90
2006,11,29,00,54,-7.90
2006,11,29,00,55,-7.90
2006,11,29,00,56,-7.90
2006,11,29,00,57,-7.90
2006,11,29,00,58,-7.90
2006,11,29,00,59,-7.90
2006,11,29,01,00,-7.90
2006,11,29,01,01,-7.90
2006,11,29,01,02,-7.90
2006,11,29,01,03,-8.00
2006,11,29,01,04,-8.10
2006,11,29,01,05,-8.10
2006,11,29,01,06,-8.10
2006,11,29,01,07,-8.20
2006,11,29,01,08,-8.20
2006,11,29,01,09,-8.20
2006,11,29,01,10,-8.20
2006,11,29,01,11,-8.20
2006,11,29,01,12,-8.20
2006,11,29,01,13,-8.20
2006,11,29,01,14,-8.20
2006,11,29,01,15,-8.20
2006,11,29,01,16,-8.20
2006,11,29,01,17,-8.30
2006,11,29,01,18,-8.30
2006,11,29,01,19,-8.30
2006,11,29,01,20,-8.30
2006,11,29,01,21,-8.30
2006,11,29,01,22,-8.20
2006,11,29,01,23,-8.20
2006,11,29,01,24,-8.20
2006,11,29,01,25,-8.20
2006,11,29,01,26,-8.20
2006,11,29,01,27,-8.20
2006,11,29,01,28,-8.20
2006,11,29,01,29,-8.20
2006,11,29,01,30,-8.20
2006,11,29,01,31,-8.20
2006,11,29,01,32,-8.20
2006,11,29,01,33,-8.10
2006,11,29,01,34,-8.10
2006,11,29,01,35,-8.10
2006,11,29,01,36,-8.00
2006,11,29,01,37,-7.90
2006,11,29,01,38,-7.90
2006,11,29,01,39,-8.00
2006,11,29,01,40,-8.10
2006,11,29,01,41,-8.10
2006,11,29,01,42,-8.10
2006,11,29,01,43,-8.20
2006,11,29,01,44,-8.20
2006,11,29,01,45,-8.20
2006,11,29,01,46,-8.20
2006,11,29,01,47,-8.20
2006,11,29,01,48,-8.30
2006,11,29,01,49,-8.30
2006,11,29,01,50,-8.30
2006,11,29,01,51,-8.30
2006,11,29,01,52,-8.30
2006,11,29,01,53,-8.40
2006,11,29,01,54,-8.40
2006,11,29,01,55,-8.30
2006,11,29,01,56,-8.30
2006,11,29,01,57,-8.30
2006,11,29,01,58,-8.30
2006,11,29,01,59,-8.30
2006,11,29,02,00,-8.30
2006,11,29,02,01,-8.30
2006,11,29,02,02,-8.30
2006,11,29,02,03,-8.30
2006,11,29,02,04,-8.30
2006,11,29,02,05,-8.30
2006,11,29,02,06,-8.30
2006,11,29,02,07,-8.30
2006,11,29,02,08,-8.30
2006,11,29,02,09,-8.30
2006,11,29,02,10,-8.30
2006,11,29,02,11,-8.40
2006,11,29,02,12,-8.40
2006,11,29,02,13,-8.40
2006,11,29,02,14,-8.40
2006,11,29,02,15,-8.40
2006,11,29,02,16,-8.40
2006,11,29,02,17,-8.40
2006,11,29,02,18,-8.30
2006,11,29,02,19,-8.30
2006,11,29,02,20,-8.30
2006,11,29,02,21,-8.30
2006,11,29,02,22,-8.30
2006,11,29,02,23,-8.30
2006,11,29,02,24,-8.20
2006,11,29,02,25,-8.20
2006,11,29,02,26,-8.20
2006,11,29,02,27,-8.20
2006,11,29,02,28,-8.20
2006,11,29,02,29,-8.20
2006,11,29,02,30,-8.20
2006,11,29,02,31,-8.10
2006,11,29,02,32,-8.10
2006,11,29,02,33,-8.00
2006,11,29,02,34,-7.90
2006,11,29,02,35,-7.90
2006,11,29,02,36,-7.90
2006,11,29,02,37,-7.90
2006,11,29,02,38,-7.90
2006,11,29,02,39,-7.90
2006,11,29,02,40,-7.80
2006,11,29,02,41,-7.80
2006,11,29,02,42,-7.80
2006,11,29,02,43,-7.80
2006,11,29,02,44,-7.80
2006,11,29,02,45,-7.70
2006,11,29,02,46,-7.70
2006,11,29,02,47,-7.70
2006,11,29,02,48,-7.70
2006,11,29,02,49,-7.70
2006,11,29,02,50,-7.70
2006,11,29,02,51,-7.70
2006,11,29,02,52,-7.70
2006,11,29,02,53,-7.70
2006,11,29,02,54,-7.60
2006,11,29,02,55,-7.60
2006,11,29,02,56,-7.60
2006,11,29,02,57,-7.60
2006,11,29,02,58,-7.60
2006,11,29,02,59,-7.60
2006,11,29,03,00,-7.60
2006,11,29,03,01,-7.60
2006,11,29,03,02,-7.60
2006,11,29,03,03,-7.60
2006,11,29,03,04,-7.50
2006,11,29,03,05,-7.40
2006,11,29,03,06,-7.40
2006,11,29,03,07,-7.30
2006,11,29,03,08,-7.30
2006,11,29,03,09,-7.30
2006,11,29,03,10,-7.30
2006,11,29,03,11,-7.20
2006,11,29,03,12,-7.20
2006,11,29,03,13,-7.20
2006,11,29,03,14,-7.10
2006,11,29,03,15,-7.10
2006,11,29,03,16,-7.10
2006,11,29,03,17,-7.10
2006,11,29,03,18,-7.10
2006,11,29,03,19,-7.00
2006,11,29,03,20,-7.00
2006,11,29,03,21,-7.00
2006,11,29,03,22,-7.00
2006,11,29,03,23,-6.90
2006,11,29,03,24,-6.90
2006,11,29,03,25,-6.90
2006,11,29,03,26,-6.90
2006,11,29,03,27,-6.90
2006,11,29,03,28,-6.80
2006,11,29,03,29,-6.80
2006,11,29,03,30,-6.80
2006,11,29,03,31,-6.80
2006,11,29,03,32,-6.80
2006,11,29,03,33,-6.70
2006,11,29,03,34,-6.70
2006,11,29,03,35,-6.70
2006,11,29,03,36,-6.70
2006,11,29,03,37,-6.70
2006,11,29,03,38,-6.70
2006,11,29,03,39,-6.70
2006,11,29,03,40,-6.70
2006,11,29,03,41,-6.70
2006,11,29,03,42,-6.70
2006,11,29,03,43,-6.70
2006,11,29,03,44,-6.70
2006,11,29,03,45,-6.70
2006,11,29,03,46,-6.70
2006,11,29,03,47,-6.70
2006,11,29,03,48,-6.70
2006,11,29,03,49,-6.70
2006,11,29,03,50,-6.70
2006,11,29,03,51,-6.70
2006,11,29,03,52,-6.70
2006,11,29,03,53,-6.60
2006,11,29,03,54,-6.60
2006,11,29,03,55,-6.60
2006,11,29,03,56,-6.60
2006,11,29,03,57,-6.60
2006,11,29,03,58,-6.50
2006,11,29,03,59,-6.50
2006,11,29,04,00,-6.50
2006,11,29,04,01,-6.50
2006,11,29,04,02,-6.50
2006,11,29,04,03,-6.50
2006,11,29,04,04,-6.50
2006,11,29,04,05,-6.50
2006,11,29,04,06,-6.50
2006,11,29,04,07,-6.60
2006,11,29,04,08,-6.60
2006,11,29,04,09,-6.60
2006,11,29,04,10,-6.60
2006,11,29,04,11,-6.60
2006,11,29,04,12,-6.60
2006,11,29,04,13,-6.60
2006,11,29,04,14,-6.60
2006,11,29,04,15,-6.60
2006,11,29,04,16,-6.60
2006,11,29,04,17,-6.60
2006,11,29,04,18,-6.60
2006,11,29,04,19,-6.60
2006,11,29,04,20,-6.60
2006,11,29,04,21,-6.60
2006,11,29,04,22,-6.60
2006,11,29,04,23,-6.60
2006,11,29,04,24,-6.60
2006,11,29,04,25,-6.60
2006,11,29,04,26,-6.60
2006,11,29,04,27,-6.60
2006,11,29,04,28,-6.60
2006,11,29,04,29,-6.60
2006,11,29,04,30,-6.60
2006,11,29,04,31,-6.60
2006,11,29,04,32,-6.50
2006,11,29,04,33,-6.50
2006,11,29,04,34,-6.50
2006,11,29,04,35,-6.50
2006,11,29,04,36,-6.50
2006,11,29,04,37,-6.40
2006,11,29,04,38,-6.40
2006,11,29,04,39,-6.40
2006,11,29,04,40,-6.40
2006,11,29,04,41,-6.40
2006,11,29,04,42,-6.40
2006,11,29,04,43,-6.40
2006,11,29,04,44,-6.40
2006,11,29,04,45,-6.40
2006,11,29,04,46,-6.40
2006,11,29,04,47,-6.40
2006,11,29,04,48,-6.30
2006,11,29,04,49,-6.30
2006,11,29,04,50,-6.30
2006,11,29,04,51,-6.30
2006,11,29,04,52,-6.30
2006,11,29,04,53,-6.30
2006,11,29,04,54,-6.20
2006,11,29,04,55,-6.20
2006,11,29,04,56,-6.20
2006,11,29,04,57,-6.20
2006,11,29,04,58,-6.20
2006,11,29,04,59,-6.10
2006,11,29,05,00,-6.10
2006,11,29,05,01,-6.10
2006,11,29,05,02,-6.10
2006,11,29,05,03,-6.10
2006,11,29,05,04,-6.10
2006,11,29,05,05,-6.10
2006,11,29,05,06,-6.10
2006,11,29,05,07,-6.10
2006,11,29,05,08,-6.10
2006,11,29,05,09,-6.10
2006,11,29,05,10,-6.10
2006,11,29,05,11,-6.10
2006,11,29,05,12,-6.10
2006,11,29,05,13,-6.10
2006,11,29,05,14,-6.10
2006,11,29,05,15,-6.10
2006,11,29,05,16,-6.10
2006,11,29,05,17,-6.10
2006,11,29,05,18,-6.10
2006,11,29,05,19,-6.10
2006,11,29,05,20,-6.10
2006,11,29,05,21,-6.10
2006,11,29,05,22,-6.10
2006,11,29,05,23,-6.10
2006,11,29,05,24,-6.10
2006,11,29,05,25,-6.10
2006,11,29,05,26,-6.10
2006,11,29,05,27,-6.10
2006,11,29,05,28,-5.90
2006,11,29,05,29,-5.90
2006,11,29,05,30,-5.90
2006,11,29,05,31,-5.90
2006,11,29,05,32,-5.90
2006,11,29,05,33,-5.90
2006,11,29,05,34,-5.90
2006,11,29,05,35,-5.90
2006,11,29,05,36,-5.90
2006,11,29,05,37,-5.90
2006,11,29,05,38,-5.90
2006,11,29,05,39,-5.90
2006,11,29,05,40,-5.90
2006,11,29,05,41,-5.90
2006,11,29,05,42,-5.90
2006,11,29,05,43,-5.90
2006,11,29,05,44,-5.90
2006,11,29,05,45,-5.90
2006,11,29,05,46,-5.90
2006,11,29,05,47,-5.90
2006,11,29,05,48,-5.90
2006,11,29,05,49,-5.90
2006,11,29,05,50,-5.90
2006,11,29,05,51,-5.90
2006,11,29,05,52,-5.90
2006,11,29,05,53,-5.80
2006,11,29,05,54,-5.80
2006,11,29,05,55,-5.80
2006,11,29,05,56,-5.80
2006,11,29,05,57,-5.80
2006,11,29,05,58,-5.80
2006,11,29,05,59,-5.80
2006,11,29,06,00,-5.80
2006,11,29,06,01,-5.80
2006,11,29,06,02,-5.80
2006,11,29,06,03,-5.80
2006,11,29,06,04,-5.80
2006,11,29,06,05,-5.80
2006,11,29,06,06,-5.80
2006,11,29,06,07,-5.80
2006,11,29,06,08,-5.80
2006,11,29,06,09,-5.80
2006,11,29,06,10,-5.80
2006,11,29,06,11,-5.70
2006,11,29,06,12,-5.70
2006,11,29,06,13,-5.70
2006,11,29,06,14,-5.70
2006,11,29,06,15,-5.70
2006,11,29,06,16,-5.70
2006,11,29,06,17,-5.70
2006,11,29,06,18,-5.70
2006,11,29,06,19,-5.70
2006,11,29,06,20,-5.70
2006,11,29,06,21,-5.70
2006,11,29,06,22,-5.70
2006,11,29,06,23,-5.70
2006,11,29,06,24,-5.70
2006,11,29,06,25,-5.70
2006,11,29,06,26,-5.70
2006,11,29,06,27,-5.70
2006,11,29,06,28,-5.70
2006,11,29,06,29,-5.70
2006,11,29,06,30,-5.70
2006,11,29,06,31,-5.70
2006,11,29,06,32,-5.70
2006,11,29,06,33,-5.70
2006,11,29,06,34,-5.70
2006,11,29,06,35,-5.70
2006,11,29,06,36,-5.70
2006,11,29,06,37,-5.70
2006,11,29,06,38,-5.70
2006,11,29,06,39,-5.70
2006,11,29,06,40,-5.70
2006,11,29,06,41,-5.70
2006,11,29,06,42,-5.60
2006,11,29,06,43,-5.60
2006,11,29,06,44,-5.60
2006,11,29,06,45,-5.60
2006,11,29,06,46,-5.60
2006,11,29,06,47,-5.60
2006,11,29,06,48,-5.60
2006,11,29,06,49,-5.60
2006,11,29,06,50,-5.60
2006,11,29,06,51,-5.60
2006,11,29,06,52,-5.60
2006,11,29,06,53,-5.60
2006,11,29,06,54,-5.60
2006,11,29,06,55,-5.60
2006,11,29,06,56,-5.60
2006,11,29,06,57,-5.60
2006,11,29,06,58,-5.60
2006,11,29,06,59,-5.60
2006,11,29,07,00,-5.60
2006,11,29,07,01,-5.60
2006,11,29,07,02,-5.60
2006,11,29,07,03,-5.60
2006,11,29,07,04,-5.60
2006,11,29,07,05,-5.60
2006,11,29,07,06,-5.60
2006,11,29,07,07,-5.60
2006,11,29,07,08,-5.60
2006,11,29,07,09,-5.60
2006,11,29,07,10,-5.60
2006,11,29,07,11,-5.60
2006,11,29,07,12,-5.60
2006,11,29,07,13,-5.60
2006,11,29,07,14,-5.60
2006,11,29,07,15,-5.60
2006,11,29,07,16,-5.60
2006,11,29,07,17,-5.60
2006,11,29,07,18,-5.60
2006,11,29,07,19,-5.60
2006,11,29,07,20,-5.60
2006,11,29,07,21,-5.60
2006,11,29,07,22,-5.60
2006,11,29,07,23,-5.60
2006,11,29,07,24,-5.50
2006,11,29,07,25,-5.50
2006,11,29,07,26,-5.50
2006,11,29,07,27,-5.50
2006,11,29,07,28,-5.50
2006,11,29,07,29,-5.50
2006,11,29,07,30,-5.50
2006,11,29,07,31,-5.50
2006,11,29,07,32,-5.50
2006,11,29,07,33,-5.50
2006,11,29,07,34,-5.50
2006,11,29,07,35,-5.50
2006,11,29,07,36,-5.50
2006,11,29,07,37,-5.40
2006,11,29,07,38,-5.40
2006,11,29,07,39,-5.40
2006,11,29,07,40,-5.40
2006,11,29,07,41,-5.40
2006,11,29,07,42,-5.40
2006,11,29,07,43,-5.40
2006,11,29,07,44,-5.40
2006,11,29,07,45,-5.40
2006,11,29,07,46,-5.40
2006,11,29,07,47,-5.40
2006,11,29,07,48,-5.40
2006,11,29,07,49,-5.40
2006,11,29,07,50,-5.40
2006,11,29,07,51,-5.40
2006,11,29,07,52,-5.40
2006,11,29,07,53,-5.40
2006,11,29,07,54,-5.40
2006,11,29,07,55,-5.40
2006,11,29,07,56,-5.40
2006,11,29,07,57,-5.40
2006,11,29,07,58,-5.40
2006,11,29,07,59,-5.40
2006,11,29,08,00,-5.40
2006,11,29,08,01,-5.30
2006,11,29,08,02,-5.30
2006,11,29,08,03,-5.30
2006,11,29,08,04,-5.30
2006,11,29,08,05,-5.30
2006,11,29,08,06,-5.30
2006,11,29,08,07,-5.30
2006,11,29,08,08,-5.30
2006,11,29,08,09,-5.30
2006,11,29,08,10,-5.30
2006,11,29,08,11,-5.30
2006,11,29,08,12,-5.30
2006,11,29,08,13,-5.30
2006,11,29,08,14,-5.30
2006,11,29,08,15,-5.30
2006,11,29,08,16,-5.30
2006,11,29,08,17,-5.30
2006,11,29,08,18,-5.30
2006,11,29,08,19,-5.30
2006,11,29,08,20,-5.30
2006,11,29,08,21,-5.30
2006,11,29,08,22,-5.30
2006,11,29,08,23,-5.30
2006,11,29,08,24,-5.30
2006,11,29,08,25,-5.30
2006,11,29,08,26,-5.30
2006,11,29,08,27,-5.30
2006,11,29,08,28,-5.30
2006,11,29,08,29,-5.30
2006,11,29,08,30,-5.30
2006,11,29,08,31,-5.30
2006,11,29,08,32,-5.30
2006,11,29,08,33,-5.30
2006,11,29,08,34,-5.30
2006,11,29,08,35,-5.30
2006,11,29,08,36,-5.30
2006,11,29,08,37,-5.20
2006,11,29,08,38,-5.20
2006,11,29,08,39,-5.20
2006,11,29,08,40,-5.20
2006,11,29,08,41,-5.20
2006,11,29,08,42,-5.20
2006,11,29,08,43,-5.20
2006,11,29,08,44,-5.20
2006,11,29,08,45,-5.20
2006,11,29,08,46,-5.20
2006,11,29,08,47,-5.20
2006,11,29,08,48,-5.10
2006,11,29,08,49,-5.10
2006,11,29,08,50,-5.10
2006,11,29,08,51,-5.10
2006,11,29,08,52,-5.10
2006,11,29,08,53,-5.10
2006,11,29,08,54,-5.10
2006,11,29,08,55,-5.10
2006,11,29,08,56,-5.10
2006,11,29,08,57,-5.00
2006,11,29,08,58,-5.00
2006,11,29,08,59,-5.00
2006,11,29,09,00,-5.00
2006,11,29,09,01,-5.00
2006,11,29,09,02,-5.00
2006,11,29,09,03,-5.00
2006,11,29,09,04,-5.00
2006,11,29,09,05,-5.00
2006,11,29,09,06,-5.00
2006,11,29,09,07,-5.00
2006,11,29,09,08,-5.00
2006,11,29,09,09,-5.00
2006,11,29,09,10,-5.00
2006,11,29,09,11,-5.00
2006,11,29,09,12,-5.00
2006,11,29,09,13,-5.00
2006,11,29,09,14,-5.00
2006,11,29,09,15,-5.00
2006,11,29,09,16,-5.00
2006,11,29,09,17,-5.00
2006,11,29,09,18,-5.00
2006,11,29,09,19,-5.00
2006,11,29,09,20,-5.00
2006,11,29,09,21,-4.90
2006,11,29,09,22,-4.90
2006,11,29,09,23,-4.90
2006,11,29,09,24,-4.90
2006,11,29,09,25,-4.90
2006,11,29,09,26,-4.90
2006,11,29,09,27,-4.90
2006,11,29,09,28,-4.90
2006,11,29,09,29,-4.90
2006,11,29,09,30,-4.90
2006,11,29,09,31,-4.90
2006,11,29,09,32,-4.90
2006,11,29,09,33,-4.90
2006,11,29,09,34,-4.90
2006,11,29,09,35,-4.90
2006,11,29,09,36,-4.90
2006,11,29,09,37,-4.90
2006,11,29,09,38,-5.00
2006,11,29,09,39,-5.00
2006,11,29,09,40,-5.00
2006,11,29,09,41,-5.00
2006,11,29,09,42,-5.00
2006,11,29,09,43,-5.00
2006,11,29,09,44,-5.00
2006,11,29,09,45,-5.00
2006,11,29,09,46,-5.00
2006,11,29,09,47,-5.00
2006,11,29,09,48,-5.00
2006,11,29,09,49,-5.00
2006,11,29,09,50,-5.00
2006,11,29,09,51,-5.00
2006,11,29,09,52,-4.90
2006,11,29,09,53,-4.90
2006,11,29,09,54,-4.90
2006,11,29,09,55,-4.90
2006,11,29,09,56,-4.90
2006,11,29,09,57,-5.00
2006,11,29,09,58,-5.00
2006,11,29,09,59,-5.00
2006,11,29,10,00,-4.90
2006,11,29,10,01,-4.90
2006,11,29,10,02,-4.90
2006,11,29,10,03,-4.90
2006,11,29,10,04,-4.90
2006,11,29,10,05,-4.90
2006,11,29,10,06,-4.90
2006,11,29,10,07,-4.90
2006,11,29,10,08,-4.90
2006,11,29,10,09,-4.90
2006,11,29,10,10,-4.90
2006,11,29,10,11,-5.00
2006,11,29,10,12,-5.00
2006,11,29,10,13,-5.00
2006,11,29,10,14,-5.00
2006,11,29,10,15,-5.00
2006,11,29,10,16,-4.90
2006,11,29,10,17,-4.90
2006,11,29,10,18,-4.90
2006,11,29,10,19,-4.90
2006,11,29,10,20,-4.90
2006,11,29,10,21,-4.90
2006,11,29,10,22,-4.90
2006,11,29,10,23,-4.90
2006,11,29,10,24,-4.90
2006,11,29,10,25,-4.90
2006,11,29,10,26,-4.90
2006,11,29,10,27,-4.90
2006,11,29,10,28,-4.80
2006,11,29,10,29,-4.80
2006,11,29,10,30,-4.80
2006,11,29,10,31,-4.70
2006,11,29,10,32,-4.70
2006,11,29,10,33,-4.70
2006,11,29,10,34,-4.70
2006,11,29,10,35,-4.70
2006,11,29,10,36,-4.70
2006,11,29,10,37,-4.70
2006,11,29,10,38,-4.80
2006,11,29,10,39,-4.80
2006,11,29,10,40,-4.70
2006,11,29,10,41,-4.70
2006,11,29,10,42,-4.80
2006,11,29,10,43,-4.80
2006,11,29,10,44,-4.80
2006,11,29,10,45,-4.80
2006,11,29,10,46,-4.80
2006,11,29,10,47,-4.90
2006,11,29,10,48,-4.90
2006,11,29,10,49,-4.90
2006,11,29,10,50,-4.90
2006,11,29,10,51,-4.90
2006,11,29,10,52,-4.90
2006,11,29,10,53,-4.90
2006,11,29,10,54,-4.90
2006,11,29,10,55,-4.80
2006,11,29,10,56,-4.80
2006,11,29,10,57,-4.80
2006,11,29,10,58,-4.80
2006,11,29,10,59,-4.80
2006,11,29,11,00,-4.80
2006,11,29,11,01,-4.80
2006,11,29,11,02,-4.80
2006,11,29,11,03,-4.80
2006,11,29,11,04,-4.80
2006,11,29,11,05,-4.80
2006,11,29,11,06,-4.80
2006,11,29,11,07,-4.80
2006,11,29,11,08,-4.70
2006,11,29,11,09,-4.70
2006,11,29,11,10,-4.70
2006,11,29,11,11,-4.70
2006,11,29,11,12,-4.70
2006,11,29,11,13,-4.70
2006,11,29,11,14,-4.70
2006,11,29,11,15,-4.70
2006,11,29,11,16,-4.70
2006,11,29,11,17,-4.70
2006,11,29,11,18,-4.70
2006,11,29,11,19,-4.70
2006,11,29,11,20,-4.70
2006,11,29,11,21,-4.70
2006,11,29,11,22,-4.70
2006,11,29,11,23,-4.70
2006,11,29,11,24,-4.70
2006,11,29,11,25,-4.70
2006,11,29,11,26,-4.70
2006,11,29,11,27,-4.70
2006,11,29,11,28,-4.70
2006,11,29,11,29,-4.70
2006,11,29,11,30,-4.70
2006,11,29,11,31,-4.70
2006,11,29,11,32,-4.70
2006,11,29,11,33,-4.70
2006,11,29,11,34,-4.70
2006,11,29,11,35,-4.60
2006,11,29,11,36,-4.60
2006,11,29,11,37,-4.60
2006,11,29,11,38,-4.60
2006,11,29,11,39,-4.60
2006,11,29,11,40,-4.60
2006,11,29,11,41,-4.60
2006,11,29,11,42,-4.60
2006,11,29,11,43,-4.60
2006,11,29,11,44,-4.50
2006,11,29,11,45,-4.50
2006,11,29,11,46,-4.50
2006,11,29,11,47,-4.50
2006,11,29,11,48,-4.50
2006,11,29,11,49,-4.50
2006,11,29,11,50,-4.50
2006,11,29,11,51,-4.50
2006,11,29,11,52,-4.50
2006,11,29,11,53,-4.50
2006,11,29,11,54,-4.50
2006,11,29,11,55,-4.50
2006,11,29,11,56,-4.50
2006,11,29,11,57,-4.50
2006,11,29,11,58,-4.50
2006,11,29,11,59,-4.50
2006,11,29,12,00,-4.50
2006,11,29,12,01,-4.50
2006,11,29,12,02,-4.50
2006,11,29,12,03,-4.50
2006,11,29,12,04,-4.50
2006,11,29,12,05,-4.50
2006,11,29,12,06,-4.40
2006,11,29,12,07,-4.40
2006,11,29,12,08,-4.40
2006,11,29,12,09,-4.40
2006,11,29,12,10,-4.40
2006,11,29,12,11,-4.40
2006,11,29,12,12,-4.40
2006,11,29,12,13,-4.40
2006,11,29,12,14,-4.40
2006,11,29,12,15,-4.40
2006,11,29,12,16,-4.40
2006,11,29,12,17,-4.40
2006,11,29,12,18,-4.40
2006,11,29,12,19,-4.40
2006,11,29,12,20,-4.40
2006,11,29,12,21,-4.40
2006,11,29,12,22,-4.40
2006,11,29,12,23,-4.40
2006,11,29,12,24,-4.40
2006,11,29,12,25,-4.40
2006,11,29,12,26,-4.40
2006,11,29,12,27,-4.40
2006,11,29,12,28,-4.40
2006,11,29,12,29,-4.40
2006,11,29,12,30,-4.40
2006,11,29,12,31,-4.40
2006,11,29,12,32,-4.40
2006,11,29,12,33,-4.40
2006,11,29,12,34,-4.40
2006,11,29,12,35,-4.40
2006,11,29,12,36,-4.30
2006,11,29,12,37,-4.30
2006,11,29,12,38,-4.30
2006,11,29,12,39,-4.30
2006,11,29,12,40,-4.30
2006,11,29,12,41,-4.30
2006,11,29,12,42,-4.30
2006,11,29,12,43,-4.30
2006,11,29,12,44,-4.30
2006,11,29,12,45,-4.30
2006,11,29,12,46,-4.30
2006,11,29,12,47,-4.20
2006,11,29,12,48,-4.30
2006,11,29,12,49,-4.30
2006,11,29,12,50,-4.30
2006,11,29,12,51,-4.30
2006,11,29,12,52,-4.30
2006,11,29,12,53,-4.30
2006,11,29,12,54,-4.30
2006,11,29,12,55,-4.20
2006,11,29,12,56,-4.20
2006,11,29,12,57,-4.20
2006,11,29,12,58,-4.20
2006,11,29,12,59,-4.20
2006,11,29,13,00,-4.20
2006,11,29,13,01,-4.20
2006,11,29,13,02,-4.20
2006,11,29,13,03,-4.20
2006,11,29,13,04,-4.20
2006,11,29,13,05,-4.20
2006,11,29,13,06,-4.20
2006,11,29,13,07,-4.20
2006,11,29,13,08,-4.20
2006,11,29,13,09,-4.20
2006,11,29,13,10,-4.20
2006,11,29,13,11,-4.10
2006,11,29,13,12,-4.10
2006,11,29,13,13,-4.10
2006,11,29,13,14,-4.10
2006,11,29,13,15,-4.10
2006,11,29,13,16,-4.10
2006,11,29,13,17,-4.10
2006,11,29,13,18,-4.10
2006,11,29,13,19,-4.10
2006,11,29,13,20,-4.00
2006,11,29,13,21,-4.00
2006,11,29,13,22,-4.00
2006,11,29,13,23,-4.00
2006,11,29,13,24,-4.00
2006,11,29,13,25,-4.00
2006,11,29,13,26,-4.00
2006,11,29,13,27,-4.00
2006,11,29,13,28,-4.00
2006,11,29,13,29,-4.00
2006,11,29,13,30,-4.00
2006,11,29,13,31,-4.00
2006,11,29,13,32,-4.00
2006,11,29,13,33,-4.00
2006,11,29,13,34,-4.00
2006,11,29,13,35,-4.00
2006,11,29,13,36,-3.90
2006,11,29,13,37,-3.90
2006,11,29,13,38,-3.90
2006,11,29,13,39,-3.90
2006,11,29,13,40,-3.90
2006,11,29,13,41,-3.90
2006,11,29,13,42,-3.90
2006,11,29,13,43,-3.90
2006,11,29,13,44,-3.80
2006,11,29,13,45,-3.80
2006,11,29,13,46,-3.80
2006,11,29,13,47,-3.80
2006,11,29,13,48,-3.80
2006,11,29,13,49,-3.80
2006,11,29,13,50,-3.80
2006,11,29,13,51,-3.80
2006,11,29,13,52,-3.80
2006,11,29,13,53,-3.80
2006,11,29,13,54,-3.80
2006,11,29,13,55,-3.80
2006,11,29,13,56,-3.80
2006,11,29,13,57,-3.80
2006,11,29,13,58,-3.80
2006,11,29,13,59,-3.80
2006,11,29,14,00,-3.80
2006,11,29,14,01,-3.80
2006,11,29,14,02,-3.80
2006,11,29,14,03,-3.70
2006,11,29,14,04,-3.70
2006,11,29,14,05,-3.70
2006,11,29,14,06,-3.70
2006,11,29,14,07,-3.70
2006,11,29,14,08,-3.70
2006,11,29,14,09,-3.70
2006,11,29,14,10,-3.70
2006,11,29,14,11,-3.70
2006,11,29,14,12,-3.70
2006,11,29,14,13,-3.70
2006,11,29,14,14,-3.70
2006,11,29,14,15,-3.70
2006,11,29,14,16,-3.70
2006,11,29,14,17,-3.70
2006,11,29,14,18,-3.70
2006,11,29,14,19,-3.70
2006,11,29,14,20,-3.70
2006,11,29,14,21,-3.70
2006,11,29,14,22,-3.70
2006,11,29,14,23,-3.70
2006,11,29,14,24,-3.70
2006,11,29,14,25,-3.70
2006,11,29,14,26,-3.70
2006,11,29,14,27,-3.70
2006,11,29,14,28,-3.70
2006,11,29,14,29,-3.70
2006,11,29,14,30,-3.70
2006,11,29,14,31,-3.70
2006,11,29,14,32,-3.70
2006,11,29,14,33,-3.60
2006,11,29,14,34,-3.60
2006,11,29,14,35,-3.60
2006,11,29,14,36,-3.60
2006,11,29,14,37,-3.60
2006,11,29,14,38,-3.60
2006,11,29,14,39,-3.60
2006,11,29,14,40,-3.60
2006,11,29,14,41,-3.60
2006,11,29,14,42,-3.60
2006,11,29,14,43,-3.60
2006,11,29,14,44,-3.60
2006,11,29,14,45,-3.50
2006,11,29,14,46,-3.50
2006,11,29,14,47,-3.50
2006,11,29,14,48,-3.50
2006,11,29,14,49,-3.50
2006,11,29,14,50,-3.50
2006,11,29,14,51,-3.50
2006,11,29,14,52,-3.50
2006,11,29,14,53,-3.50
2006,11,29,14,54,-3.50
2006,11,29,14,55,-3.50
2006,11,29,14,56,-3.50
2006,11,29,14,57,-3.50
2006,11,29,14,58,-3.50
2006,11,29,14,59,-3.50
2006,11,29,15,00,-3.40
2006,11,29,15,01,-3.40
2006,11,29,15,02,-3.40
2006,11,29,15,03,-3.40
2006,11,29,15,04,-3.40
2006,11,29,15,05,-3.40
2006,11,29,15,06,-3.40
2006,11,29,15,07,-3.40
2006,11,29,15,08,-3.30
2006,11,29,15,09,-3.30
2006,11,29,15,10,-3.30
2006,11,29,15,11,-3.30
2006,11,29,15,12,-3.30
2006,11,29,15,13,-3.30
2006,11,29,15,14,-3.30
2006,11,29,15,15,-3.30
2006,11,29,15,16,-3.30
2006,11,29,15,17,-3.30
2006,11,29,15,18,-3.20
2006,11,29,15,19,-3.20
2006,11,29,15,20,-3.20
2006,11,29,15,21,-3.20
2006,11,29,15,22,-3.10
2006,11,29,15,23,-3.10
2006,11,29,15,24,-3.10
2006,11,29,15,25,-3.10
2006,11,29,15,26,-3.10
2006,11,29,15,27,-3.00
2006,11,29,15,28,-3.00
2006,11,29,15,29,-3.00
2006,11,29,15,30,-3.00
2006,11,29,15,31,-3.00
2006,11,29,15,32,-3.00
2006,11,29,15,33,-3.00
2006,11,29,15,34,-3.00
2006,11,29,15,35,-3.00
2006,11,29,15,36,-3.00
2006,11,29,15,37,-3.00
2006,11,29,15,38,-3.00
2006,11,29,15,39,-3.00
2006,11,29,15,40,-3.00
2006,11,29,15,41,-3.00
2006,11,29,15,42,-3.00
2006,11,29,15,43,-3.00
2006,11,29,15,44,-3.00
2006,11,29,15,45,-2.90
2006,11,29,15,46,-2.90
2006,11,29,15,47,-2.90
2006,11,29,15,48,-2.90
2006,11,29,15,49,-2.80
2006,11,29,15,50,-2.80
2006,11,29,15,51,-2.80
2006,11,29,15,52,-2.80
2006,11,29,15,53,-2.80
2006,11,29,15,54,-2.80
2006,11,29,15,55,-2.80
2006,11,29,15,56,-2.80
2006,11,29,15,57,-2.80
2006,11,29,15,58,-2.80
2006,11,29,15,59,-2.80
2006,11,29,16,00,-2.80
2006,11,29,16,01,-2.80
2006,11,29,16,02,-2.80
2006,11,29,16,03,-2.80
2006,11,29,16,04,-2.80
2006,11,29,16,05,-2.80
2006,11,29,16,06,-2.80
2006,11,29,16,07,-2.80
2006,11,29,16,08,-2.70
2006,11,29,16,09,-2.70
2006,11,29,16,10,-2.70
2006,11,29,16,11,-2.70
2006,11,29,16,12,-2.70
2006,11,29,16,13,-2.70
2006,11,29,16,14,-2.70
2006,11,29,16,15,-2.70
2006,11,29,16,16,-2.70
2006,11,29,16,17,-2.60
2006,11,29,16,18,-2.60
2006,11,29,16,19,-2.60
2006,11,29,16,20,-2.60
2006,11,29,16,21,-2.60
2006,11,29,16,22,-2.60
2006,11,29,16,23,-2.60
2006,11,29,16,24,-2.50
2006,11,29,16,25,-2.50
2006,11,29,16,26,-2.50
2006,11,29,16,27,-2.50
2006,11,29,16,28,-2.50
2006,11,29,16,29,-2.50
2006,11,29,16,30,-2.50
2006,11,29,16,31,-2.50
2006,11,29,16,32,-2.50
2006,11,29,16,33,-2.50
2006,11,29,16,34,-2.50
2006,11,29,16,35,-2.40
2006,11,29,16,36,-2.40
2006,11,29,16,37,-2.40
2006,11,29,16,38,-2.30
2006,11,29,16,39,-2.30
2006,11,29,16,40,-2.30
2006,11,29,16,41,-2.30
2006,11,29,16,42,-2.30
2006,11,29,16,43,-2.30
2006,11,29,16,44,-2.30
2006,11,29,16,45,-2.30
2006,11,29,16,46,-2.30
2006,11,29,16,47,-2.30
2006,11,29,16,48,-2.30
2006,11,29,16,49,-2.30
2006,11,29,16,50,-2.30
2006,11,29,16,51,-2.30
2006,11,29,16,52,-2.30
2006,11,29,16,53,-2.30
2006,11,29,16,54,-2.30
2006,11,29,16,55,-2.30
2006,11,29,16,56,-2.30
2006,11,29,16,57,-2.30
2006,11,29,16,58,-2.30
2006,11,29,16,59,-2.30
2006,11,29,17,00,-2.30
2006,11,29,17,01,-2.20
2006,11,29,17,02,-2.20
2006,11,29,17,03,-2.20
2006,11,29,17,04,-2.20
2006,11,29,17,05,-2.20
2006,11,29,17,06,-2.20
2006,11,29,17,07,-2.20
2006,11,29,17,08,-2.20
2006,11,29,17,09,-2.20
2006,11,29,17,10,-2.10
2006,11,29,17,11,-2.10
2006,11,29,17,12,-2.10
2006,11,29,17,13,-2.10
2006,11,29,17,14,-2.10
2006,11,29,17,15,-2.10
2006,11,29,17,16,-2.00
2006,11,29,17,17,-2.00
2006,11,29,17,18,-1.90
2006,11,29,17,19,-1.90